Location: EverStaR Observatory
(38.9036°N, 94.8303°W)
Time: 14:59:24
(UTC-05:00)

Hubble Space Telescope - Pass Details

Date: 25 March 2019
Orbit: 537 x 540 km, 28.5° (Epoch: 22 April)

Event Time Altitude Azimuth Distance (km) Brightness Sun altitude
Rises 21:25:06 0° 234° (SW) 2,673 4.8 -21.5°
Reaches altitude 10° 21:27:57 10° 214° (SW) 1,783 3.5 -22.0°
Enters shadow 21:29:13 15° 198° (SSW) 1,510 3.0 -22.2°
